Theta_e
351 353 352 353 353 351 352 351 351 352 353 353 354 353 354 354 355 356 357 357 357 357 356 355 354 354 356 356 356 356 356 355 354 354 354 354 354 353 351 350 350 350
352 352 351 352 352 352 352 352 352 353 353 353 354 353 353 354 355 356 358 357 357 358 358 355 353 354 356 356 355 355 356 356 356 356 356 355 353 352 351 351 351 349
351 352 351 351 352 353 353 353 353 354 355 355 355 354 352 352 354 356 357 358 357 357 356 355 353 354 356 356 354 354 355 357 357 357 358 356 355 354 352 351 352 350
351 352 352 351 351 353 354 354 355 356 356 356 355 355 353 352 354 354 355 357 357 356 355 356 356 355 356 357 356 355 356 358 358 357 359 358 356 355 353 352 353 352
351 351 353 352 351 353 354 354 355 355 355 356 356 356 355 353 354 353 353 354 355 355 355 356 358 357 357 357 357 357 357 358 357 357 359 359 358 356 354 352 353 353
353 352 352 353 353 353 355 354 354 355 355 355 355 356 356 355 355 355 353 352 354 356 356 356 357 357 356 355 355 357 357 356 354 355 358 359 358 357 355 353 353 353
355 354 353 353 353 353 354 354 354 355 354 353 354 355 355 356 356 355 354 354 355 357 357 356 357 357 356 355 355 356 357 356 355 355 357 358 358 358 357 356 355 355
356 355 354 355 354 354 354 354 355 355 353 353 354 355 355 355 356 356 355 356 356 357 358 357 357 357 356 356 356 356 356 357 358 358 357 358 358 358 358 358 358 358
357 356 356 356 356 355 354 354 354 354 353 352 352 354 353 353 355 356 356 356 356 357 358 357 357 357 357 356 356 357 357 357 358 359 359 359 359 358 357 357 357 359
358 357 357 357 357 356 355 354 355 354 353 352 352 352 353 353 354 355 356 356 356 357 357 357 357 357 357 357 356 356 357 357 356 357 358 359 359 358 357 356 356 357
357 357 357 357 358 358 356 356 356 355 352 351 351 351 351 352 354 354 356 356 356 356 356 356 356 356 357 358 357 356 356 356 356 355 356 357 359 360 358 357 357 356
355 356 357 357 357 358 357 356 355 353 352 351 351 351 350 351 353 354 355 356 356 356 356 356 356 356 356 357 357 356 355 355 355 355 356 356 357 359 359 359 358 357
354 354 355 355 355 356 357 356 353 351 350 350 350 350 350 350 351 353 353 354 354 355 355 356 356 355 356 355 355 355 355 354 354 355 356 356 356 357 358 359 359 357
351 351 352 353 353 354 355 354 352 349 349 350 350 350 350 349 349 350 351 352 352 353 353 354 355 355 355 355 354 354 354 354 353 354 355 356 356 355 356 357 357 357
351 350 351 351 351 353 354 353 352 350 349 349 350 350 349 349 348 348 349 350 350 351 351 352 353 354 354 354 354 353 354 354 353 353 354 355 356 355 354 354 354 355
351 351 350 350 350 351 352 352 350 350 348 348 350 352 350 349 348 347 347 348 349 350 350 350 352 352 352 352 352 352 352 353 353 353 354 354 355 355 354 353 353 352
351 351 351 351 350 350 351 350 349 349 349 348 350 352 352 350 349 348 347 347 348 348 350 350 351 351 351 350 350 351 351 351 353 353 354 354 354 355 355 354 353 352
353 352 352 353 353 352 352 352 351 351 351 350 351 352 352 351 350 349 348 347 348 348 349 351 351 351 351 351 350 350 350 350 351 352 353 353 353 352 353 353 354 353
352 352 353 354 354 354 353 353 353 353 352 352 352 353 353 352 351 350 350 349 349 350 350 351 352 352 352 352 352 351 350 350 350 351 352 352 352 351 350 350 350 351
348 349 349 350 352 352 351 351 351 353 353 354 354 355 354 354 352 351 351 351 351 351 351 351 351 351 351 352 352 352 352 351 352 352 353 353 353 352 351 349 348 347
346 346 346 347 349 349 349 349 350 351 353 354 355 355 355 355 354 353 352 352 352 352 351 351 352 352 352 352 352 352 351 352 353 354 354 354 354 354 354 353 351 349
343 344 346 346 346 346 346 347 347 348 349 351 352 353 354 354 354 354 353 354 353 353 353 352 351 351 352 352 352 352 352 352 352 352 352 352 353 354 354 354 353 352
336 337 339 343 344 345 346 347 347 346 347 348 349 350 351 352 353 354 354 354 354 354 354 355 354 353 353 353 353 353 353 353 353 352 352 352 351 351 351 352 353 353
332 332 334 336 337 338 340 343 345 345 346 347 348 349 350 351 352 353 353 354 353 353 355 356 355 354 354 354 354 354 354 355 355 355 354 354 354 353 352 350 350 350
330 331 332 333 334 334 334 336 338 339 341 343 344 346 348 349 349 350 351 353 352 352 355 356 355 354 353 353 353 353 354 355 354 354 354 354 354 354 353 353 352 351
325 327 328 328 330 331 332 333 334 334 334 334 334 336 339 342 345 347 349 349 350 351 352 353 352 351 350 350 350 351 352 353 353 353 353 353 353 353 353 352 353 352
Wind_Speed
23 22 21 19 20 20 19 19 20 21 21 19 17 17 16 15 15 16 15 13 14 14 12 11 11 11 11 11 10 10 10 9 9 9 9 10 11 11 11 10 9 9
25 23 21 19 20 21 20 19 19 20 21 20 18 17 16 15 16 17 16 15 15 14 13 12 11 11 11 11 10 10 10 9 10 10 9 10 11 11 11 11 9 8
26 24 22 20 20 21 20 19 19 19 19 19 19 17 15 15 16 18 17 15 15 14 13 12 12 11 11 10 11 11 11 10 11 11 10 10 10 11 11 10 10 9
28 26 23 21 20 19 20 20 19 19 18 18 18 17 16 14 15 17 17 16 14 14 13 12 11 11 11 10 11 12 12 11 11 12 11 10 11 12 11 10 10 10
27 27 24 22 20 19 19 20 20 19 18 18 17 16 15 15 15 14 15 15 15 13 12 12 11 11 11 12 12 13 13 12 12 12 13 12 11 12 12 12 11 11
25 26 25 23 21 20 19 20 20 19 18 18 17 16 15 15 15 13 12 14 15 14 14 13 12 11 11 12 13 13 12 12 12 12 13 13 11 11 12 12 12 12
25 25 24 24 22 21 21 20 20 20 19 18 18 18 17 15 15 14 13 14 15 16 15 14 14 13 12 12 13 13 12 11 10 11 12 13 12 11 11 12 12 12
25 24 24 24 23 23 23 21 21 21 20 20 20 20 19 18 17 17 16 16 16 17 16 15 15 15 13 12 12 13 12 12 11 11 12 12 13 13 12 11 12 12
24 25 24 23 24 24 25 24 23 23 22 22 22 21 20 21 20 20 19 19 18 18 18 17 17 17 16 14 14 13 13 12 12 12 12 13 13 14 13 12 13 14
20 23 24 25 25 24 25 25 24 24 24 24 24 23 22 22 22 21 21 21 21 20 19 19 19 19 18 17 16 15 14 14 13 13 14 14 14 14 14 13 14 15
15 19 21 24 26 25 24 25 24 24 25 25 26 25 24 23 23 22 22 23 24 22 21 20 20 21 21 21 19 16 16 15 15 15 15 15 16 16 16 16 15 16
18 21 19 18 23 25 24 23 22 22 23 25 26 26 25 24 25 24 23 24 24 23 22 21 21 22 22 22 22 20 18 18 17 17 16 16 17 17 17 17 17 16
19 22 20 16 17 21 23 21 18 16 16 19 23 27 26 25 26 27 26 25 25 24 23 23 22 22 23 23 23 22 21 20 19 19 19 18 18 19 18 17 17 17
14 16 17 17 17 19 20 19 17 15 13 13 16 23 27 27 27 28 28 27 27 26 25 24 23 23 23 23 23 23 23 23 21 21 21 20 20 20 19 19 19 19
13 15 17 18 19 21 21 19 18 17 15 12 12 16 24 29 29 29 29 30 29 29 27 26 25 24 24 24 23 23 23 24 23 22 22 22 22 22 21 21 21 20
15 17 19 18 18 19 20 20 18 17 17 14 11 11 18 27 30 29 29 30 31 31 30 29 28 27 26 25 25 25 24 24 24 23 22 23 24 24 24 23 22 22
15 16 16 17 15 14 17 19 19 18 17 15 12 10 12 20 25 26 27 28 30 31 31 31 30 29 28 27 27 27 27 26 26 26 25 24 25 25 25 25 25 25
12 13 14 14 14 12 11 13 15 16 15 14 13 11 10 11 15 18 20 22 25 27 29 30 30 30 29 29 29 29 29 28 28 28 27 27 27 27 27 27 27 27
10 11 12 12 12 11 8 7 8 9 10 11 12 12 11 9 9 11 13 14 15 17 19 22 24 27 28 29 29 29 29 29 29 29 30 30 30 30 29 29 29 29
7 7 8 9 9 7 6 5 4 4 5 6 7 9 10 11 10 10 11 11 11 11 12 14 16 20 24 27 28 29 28 29 30 30 31 31 31 31 31 31 31 31
8 7 7 6 6 5 4 3 2 1 1 2 3 4 6 9 10 11 10 10 10 10 10 12 13 15 17 20 24 26 27 29 30 31 31 31 31 31 31 31 32 32
10 9 9 8 7 6 5 5 4 2 1 1 2 3 4 5 7 9 9 8 8 8 8 11 13 14 14 15 16 18 20 22 25 27 29 30 31 31 32 32 32 32
12 12 11 9 8 7 6 5 4 3 2 1 1 2 3 3 4 5 5 3 3 3 4 7 10 11 11 11 12 13 15 17 19 21 22 24 26 28 31 33 34 34
11 12 12 10 9 8 7 5 3 2 2 2 2 3 3 3 4 5 5 6 6 6 6 6 6 6 7 7 8 9 12 14 16 18 19 20 21 22 24 27 31 33
12 11 11 11 10 9 8 7 5 4 4 5 5 5 6 4 3 5 5 4 5 5 6 7 6 6 9 12 13 13 13 14 15 17 19 21 22 22 23 24 25 28
12 11 11 11 10 10 9 8 8 6 5 5 6 6 7 5 3 4 3 1 4 6 10 10 8 7 9 10 13 15 16 17 17 19 20 23 24 24 25 25 26 28
Wind_Direction
200 199 204 208 207 206 204 204 206 206 207 208 209 210 213 215 212 211 213 215 217 216 217 219 213 209 213 214 218 226 231 230 230 244 249 243 250 257 255 254 261 282
202 203 209 213 210 207 207 206 205 206 208 211 214 215 215 214 211 210 214 217 219 219 223 227 220 213 212 214 222 230 231 232 233 240 247 247 252 259 258 255 261 276
204 205 210 214 210 205 206 207 207 209 211 214 216 218 217 213 210 210 213 219 222 221 224 229 225 219 215 217 225 230 228 231 233 235 244 250 254 259 257 253 263 278
206 207 210 213 212 207 206 207 209 212 214 216 218 219 219 216 214 213 214 220 225 223 224 229 229 226 223 224 227 227 224 229 234 233 239 247 250 255 254 251 263 277
208 209 212 214 214 211 209 209 212 215 216 219 220 220 219 217 217 217 217 222 226 226 227 232 234 233 229 227 227 227 225 230 234 231 236 244 247 252 252 249 260 272
211 212 214 216 216 214 213 214 217 220 222 223 221 221 220 218 220 218 216 220 222 225 231 234 236 238 236 231 230 232 234 237 237 234 237 242 247 254 253 249 257 266
212 215 216 217 219 218 217 219 222 225 227 225 224 224 223 222 223 218 215 218 219 222 229 233 234 239 240 238 235 236 239 240 237 236 238 242 247 254 255 250 254 263
212 214 217 218 220 222 222 222 224 227 228 227 227 227 225 223 223 220 217 218 218 221 226 231 235 239 240 240 239 238 240 242 240 240 242 244 248 253 254 250 251 263
214 214 216 219 221 223 223 223 225 227 229 231 231 228 225 223 223 223 221 220 219 220 223 227 231 235 236 238 239 239 241 244 245 243 245 249 254 255 255 252 251 259
214 215 217 219 220 222 223 222 225 228 230 233 234 232 229 225 222 223 223 221 220 219 222 225 227 230 232 234 237 238 239 243 245 242 244 248 253 257 257 256 254 256
209 212 216 220 220 221 223 224 227 230 232 233 234 234 234 229 223 222 223 221 219 219 222 224 225 228 229 231 233 234 236 241 244 243 243 242 246 254 258 257 255 254
210 207 210 219 222 220 221 223 227 230 231 232 233 233 234 232 227 225 225 222 221 222 225 226 227 229 230 232 234 234 235 238 242 245 245 243 243 248 254 257 255 255
214 209 205 210 220 220 220 221 219 219 224 230 232 232 233 234 232 230 229 228 228 228 229 230 231 232 234 236 236 235 236 237 240 243 245 247 246 247 249 253 254 256
219 210 204 206 214 215 216 220 218 215 216 222 231 234 233 234 235 234 233 232 233 234 234 233 233 234 237 240 239 237 237 239 241 243 245 247 249 250 250 250 251 254
214 206 206 212 216 214 212 217 224 225 222 224 232 237 235 235 235 236 235 233 233 234 235 235 233 234 238 240 241 239 238 240 242 245 248 250 252 254 254 251 249 250
202 200 206 213 218 218 217 220 228 232 234 236 239 242 237 234 234 235 235 234 234 234 235 235 234 235 237 239 240 241 241 241 242 245 249 253 255 258 259 257 254 253
193 192 196 203 209 217 222 226 233 239 242 243 244 247 240 231 231 235 237 236 235 234 234 234 235 237 239 239 240 241 242 243 243 245 248 251 255 259 261 263 262 261
167 169 168 176 186 191 201 215 227 236 242 244 243 244 239 226 224 227 230 233 233 233 234 235 236 239 240 242 243 244 244 245 246 247 249 250 253 256 259 261 263 264
136 144 141 142 152 158 160 174 196 216 229 236 237 236 235 228 218 213 213 215 218 223 228 232 236 239 240 242 244 246 247 248 249 250 252 253 254 254 255 257 258 260
112 117 120 120 126 132 131 133 147 173 199 216 225 229 229 226 223 218 214 211 210 210 212 218 227 235 239 241 243 246 248 248 249 249 250 253 255 256 256 257 256 257
96 90 92 97 98 91 79 71 74 97 160 208 227 237 238 233 229 226 223 221 221 220 220 222 222 226 233 238 241 244 247 248 248 249 250 252 254 257 258 259 260 259
81 80 79 79 74 67 63 57 48 37 20 312 261 260 261 257 249 242 237 234 231 230 234 239 239 238 239 241 244 247 249 250 251 252 254 256 256 257 258 258 260 261
63 66 67 67 64 60 60 61 56 54 57 31 316 304 289 281 284 278 269 277 293 283 267 257 254 254 255 255 255 255 253 253 253 254 256 258 259 259 259 258 258 259
47 52 50 50 51 47 42 36 27 31 35 24 11 8 7 358 353 349 335 336 353 356 342 326 303 288 293 293 283 273 266 263 263 264 263 264 266 267 266 263 261 259
40 41 35 32 32 30 26 20 11 9 9 6 1 358 1 3 10 13 355 317 308 295 276 286 300 303 312 316 310 300 291 283 278 276 274 273 274 275 273 271 268 266
31 33 28 23 19 12 7 5 2 359 358 5 5 358 355 349 346 14 27 278 267 262 248 251 271 276 278 294 297 290 286 285 284 281 281 281 280 279 277 275 273 271